FALCON 9 R/B, 52934

Orbit data source: Space-Track

FALCON 9 R/B, 52934 is space debris in HEO originally from a launch on Wed, 29 Jun 2022 UTC launched from the Air Force Eastern Test Range (AFETR). Debris objects in space refer to the collection of defunct objects orbiting the Earth. Examples of debris include non-operational satellites, rocket bodies, and fragments generated from explosions, collisions, or faulty payload assembly.

Loading next visibility...
Identifier
52934, 2022-071B
Orbit
HEO
Country
Flag of USUS
Related business
Manufacturer
SpaceX
Mission
Spacecraft
Bus & Motor
F9ST2, Unknown motor
Mass
~4,000 kg wet, ~4,000 kg dry
Launch date (UTC)
2022-06-29 (3 years ago)
Launch vehicle
Unknown
Launch site
Air Force Eastern Test Range (AFETR)
Object type
Payload
Rocket body
Debris
Shape & HBR
Cyl, 7.8 m
Radar Cross Section
39.980 m², Large (>1 m²)

Expand to show TLE details & history
Last TLE update: 18 hours ago

TLE from 18 hours ago
0 FALCON 9 R/B
1 52934U 22071B   25305.16199808  .00001008  00000-0  90857-3 0  9993
2 52934  16.5078 299.9812 7205450  11.3908 358.7771  2.33767607 28231
Epoch: 2025-11-01T03:53Z
TLE epoch observation values (Epoch: 2025-11-01T03:53:16.634Z)
Latitude
0.00089°
Longitude
-159.06049°
Altitude
400.137 km
Speed
10.049 km/s
True Right ascension
19h 59m 49s
True Declination
0° 00' 03"
Sunlit
Object was in daylight at epoch
Visualization orbit readout
Latitude
Unknown
Longitude
Unknown
Altitude
Unknown
Speed
Unknown
Apparent Right ascension
Unknown
Apparent Declination
Unknown
Sunlit
N/A
Visualization observer readout
Local Sidereal Time
17:30:05
Azimuth
Unknown
Elevation
Unknown
Doppler factor
Unknown
Orbital elements
Apogee altitude
34,891.717 km
Perigee altitude
325.011 km
Semi-major axis
23,986.501 km
Eccentricity
0.72055
Inclination
16.5078°
RAAN
299.9812°
Arg. of periapsis
11.3908°
True anomaly
349.19574°
Mean anomaly
358.7771°
Eccentric anomaly
355.63487°
Mean motion
0.58424 °/min
Orbital period
616.18 mins
BSTAR
0.00090857
Loading maneuver chart data...
Computing Atmospheric mass density...
Loading historical data...
Loading historical data...
Loading historical data...
Loading historical data...
Loading historical data...
Loading historical data...
Loading historical data...
Other satellites on launch #71 in the year 2022 (2022-06-29 UTC)

Documentation

Showing up to 5 results
|